Regional Weather Roundup
Issued by NWS

Home | Current Version | Previous Version | Graphics & Text | Print | Product List | Glossary On
Versions: 1 2 3 4 5 6 7 8 9 10 11 12 13 14 15 16 17 18 19 20 21 22 23 24 25 26 27 28 29 30 31 32 33 34 35 36 37 38 39 40 41 42 43 44 45 46 47 48 49 50
000
ASUS43 KMPX 081701
RWRMN
WEATHER ROUNDUP FOR MINNESOTA
NATIONAL WEATHER SERVICE TWIN CITIES/CHANHASSEN MN
1100 AM CST THU DEC 08 2016


NOTE: "FAIR" INDICATES FEW OR NO CLOUDS BELOW 12,000 FEET WITH NO
SIGNIFICANT WEATHER AND/OR OBSTRUCTIONS TO VISIBILITY. N/A MEANS
CURRENT SKY AND/OR WEATHER CONDITIONS ARE NOT AVAILABLE.

MNZ060>063-068>070-081800-
   Twin Cities Metro

CITY           SKY/WX    TMP DP  RH WIND       PRES   REMARKS
BLAINE         CLOUDY    25  16  68 NW17G24   30.34R WCI  11
$$
MNZ001>005-007-008-013>017-022>024-027-028-081800-
   Northwest Minnesota

CITY           SKY/WX    TMP DP  RH WIND       PRES   REMARKS
CROOKSTON      LGT SNOW  16  12  86 N23       30.48R VSB 3/4 WCI  -2
$$
MNZ006-009>011-018-025>026-081800-
   North Central Minnesota

CITY           SKY/WX    TMP DP  RH WIND       PRES   REMARKS
WASKISH        PTSUNNY   19  16  86 NW8       30.35R WCI   9
LONGVILLE      LGT SNOW  18  12  79 W9G17     30.33R VSB 1   WCI   6
CRANE LAKE     CLOUDY    19  16  86 NW8       30.28R WCI   9
ORR            LGT SNOW  19  12  73 NW9       30.24R WCI   9
COOK           FLURRIES  19  16  86 W7        30.26R WCI  10
$$
MNZ012-019>021-037-081800-
   Northeast Minnesota

CITY           SKY/WX    TMP DP  RH WIND       PRES   REMARKS
GRAND MARAIS     N/A     26  17  68 NW9       30.19R WCI  17
$$
MNZ029>031-032-039>041-046>048-054>057-064-081800-
   West Central Minnesota

CITY           SKY/WX    TMP DP  RH WIND       PRES   REMARKS
WHEATON        LGT SNOW  16  10  79 W20       30.54R WCI  -1
ELBOW LAKE     LGT SNOW  13  10  88 NW21      30.48R WCI  -5
WADENA         FLURRIES  16   9  73 NW16G22   30.39R WCI   0
WILLMAR        LGT SNOW  18  12  79 NW20G29   30.46R WCI   1
$$
MNZ033>034-036-042>043-049>051-058-059-081800-
   Central Minnesota

CITY           SKY/WX    TMP DP  RH WIND       PRES   REMARKS
$$
MNZ037-044-045-052-053-081800-
   East Central Minnesota

CITY           SKY/WX    TMP DP  RH WIND       PRES   REMARKS
MORA           FLURRIES  25  18  74 NW14      30.33R WCI  13
CAMBRIDGE      FLURRIES  25  16  68 W13       30.32R WCI  13
RUSH CITY      PTSUNNY   23  14  68 NW12G17   30.32R WCI  12
CLOQUET        PTSUNNY   21  14  73 NW13G20   30.25R WCI   9
$$
MNZ071>073-080-081-089-090-097-098-081800-
   Southwest Minnesota

CITY           SKY/WX    TMP DP  RH WIND       PRES   REMARKS
JACKSON        FLURRIES  16  10  79 NW26G32   30.46R WCI  -3
SLAYTON        CLOUDY    13   7  78 NW22G29   30.47S WCI  -6
$$
MNZ065>067-074>077-082>085-091>093-081800-
   South Central Minnesota

CITY           SKY/WX    TMP DP  RH WIND       PRES   REMARKS
ST JAMES       FLURRIES  16  10  79 W24G33    30.47R WCI  -3
GLENCOE        CLOUDY    22  18  83 NW17G29   30.40R WCI   8
OWATONNA       FLURRIES  19  14  79 W17       30.37R WCI   4
$$
MNZ078>079-086>088-094>096-081800-
   Southeast Minnesota

CITY           SKY/WX    TMP DP  RH WIND       PRES   REMARKS
RED WING       CLOUDY    23  14  68 NW10G17   30.33R WCI  12
AUSTIN         FLURRIES  18  12  79 NW20      30.36R WCI   1
$$
ABBREVIATIONS USED IN REMARKS
   TC - TEMPERATURES IN CELSIUS
  WCI - WIND CHILL INDEX
   HX - HEAT INDEX
  VSB - VISIBILITY
$$




USA.gov is the U.S. government's official web portal to all federal, state and local government web resources and services.